Regional Weather Roundup
Issued by NWS

Home | Current Version | Previous Version | Graphics & Text | Print | Product List | Glossary On
Versions: 1 2 3 4 5 6 7 8 9 10 11 12 13 14 15 16 17 18 19 20 21 22 23 24 25 26 27 28 29 30 31 32 33 34 35 36 37 38 39 40 41 42 43 44 45 46 47 48 49 50
000
ASUS43 KOAX 312210
RWRNE

WEATHER ROUNDUP FOR NEBRASKA
NATIONAL WEATHER SERVICE OMAHA NE
500 PM CDT SUN AUG 31 2014

NOTES: SATELLITE DATA IS BEING USED TO AUGMENT CLOUD COVER ABOVE
       12000 FEET.
       "FAIR" INDICATES FEW OR NO CLOUDS BELOW 12,000 FEET WITH NO
       SIGNIFICANT WEATHER AND/OR OBSTRUCTIONS TO VISIBILITY.

  * THESE STATIONS DO NOT REPORT WEATHER SUCH AS RAIN...SNOW OR FOG.

NEZ001>004-019>022-054>056-312300-
NEBRASKA PANHANDLE

CITY           SKY/WX    TMP DP  RH WIND       PRES   REMARKS
SCOTTSBLUFF    MOSUNNY   78  45  30 W16G22    29.79F
ALLIANCE       CLOUDY    76  47  35 W17       29.76F
CHADRON        CLOUDY    63  57  81 NE5       29.76S
KIMBALL        PTSUNNY   72  47  40 W12       29.85F
SIDNEY         CLOUDY    78  41  26 W21G29    29.85S
$$

NEZ057>060-069>072-079>082-312300-
SOUTHWEST NEBRASKA

CITY           SKY/WX    TMP DP  RH WIND       PRES   REMARKS
NORTH PLATTE   PTSUNNY   68  58  70 S8        29.81R
IMPERIAL       CLOUDY    74  59  59 CALM      29.84R
LEXINGTON      CLOUDY    74  58  56 NE9G16    29.79F
MCCOOK         PTSUNNY   78  56  46 E12       29.80F
OGALLALA       LGT RAIN  61  52  72 N3G21     29.80F
$$

NEZ005>010-023>029-035>040-094-312300-
NORTH CENTRAL NEBRASKA

CITY           SKY/WX    TMP DP  RH WIND       PRES   REMARKS
VALENTINE      CLOUDY    71  60  68 S5        29.74F
AINSWORTH      CLOUDY    66  59  77 CALM      29.74F
BROKEN BOW     TSTM      68  58  70 NE7G18    29.78F
O`NEILL        CLOUDY    71  62  73 CALM      29.76F
ORD            LGT RAIN  69  60  73 NW9       29.77S
THEDFORD       CLOUDY    71  61  70 W9        29.77R
$$

NEZ041-046>049-061>064-073>077-083>087-312300-
SOUTH CENTRAL NEBRASKA

CITY           SKY/WX    TMP DP  RH WIND       PRES   REMARKS
GRAND ISLAND   MOSUNNY   79  64  60 NW25G37   29.71F
AURORA         MOSUNNY   83  65  54 NW12      29.65F THUNDER
HASTINGS       MOSUNNY   84  63  49 NW10      29.68F
HEBRON         TSTM      78  69  71 SE5       29.59F
HOLDREGE       MOSUNNY   76  57  52 N18G25    29.79R
KEARNEY *      MOSUNNY   75  59  57 NW24G30   29.77R
YORK           MOSUNNY   82 N/A N/A CALM      29.66F
$$

NEZ011>018-030>034-042>045-312300-
NORTHEAST NEBRASKA

CITY           SKY/WX    TMP DP  RH WIND       PRES   REMARKS
NORFOLK        TSTM      66  65  96 NE10G26   29.73R FOG
ALBION         CLOUDY    67  64  89 CALM      29.76F
BLAIR          PTSUNNY   83  73  69 SE8       29.66F
FREMONT        CLOUDY    81  71  72 SE6       29.67F
TEKAMAH        PTSUNNY   80  71  74 SE8       29.65F
WAYNE          CLOUDY    76  69  80 W9        29.70R THUNDER
$$

NEZ050>053-065>068-078-088>093-312300-
SOUTHEAST NEBRASKA

CITY           SKY/WX    TMP DP  RH WIND       PRES   REMARKS
LINCOLN        CLOUDY    88  67  49 SW3       29.64F HX  91
OMAHA EPPLEY   PTSUNNY   85  73  67 SE18      29.65F HX  91
BEATRICE       SUNNY     90  63  40 S13       29.65F HX  90
FALLS CITY     MOSUNNY   93  69  45 S20G30    29.68F HX  98
NEBRASKA CITY  MOSUNNY   89  68  49 S17G26    29.67F HX  92
PLATTSMOUTH    MOSUNNY   87  74  64 SE9       29.67F HX  95
$$

NEZ044-045-051>053-067-312300-
OMAHA AREA

CITY           SKY/WX    TMP DP  RH WIND       PRES   REMARKS
OMAHA EPPLEY   PTSUNNY   85  73  67 SE18      29.65F HX  91
BLAIR          PTSUNNY   83  73  69 SE8       29.66F
FREMONT        CLOUDY    81  71  72 SE6       29.67F
MILLARD        MOSUNNY   85  75  71 SE12G17   29.65F HX  94
OFFUTT AFB     MOSUNNY   86  78  78 SE17G24   29.65F HX  98
PLATTSMOUTH    MOSUNNY   87  74  64 SE9       29.67F HX  95
WAHOO          MOCLDY    82  72  71 SE8       29.66F
$$



USA.gov is the U.S. government's official web portal to all federal, state and local government web resources and services.